Location: C.E.K. Mees Observatory
(42.7003°N, 77.4088°W)
Time: 01:58:00
(UTC-04:00)

N. Korean satellite - Pass Details

Date: 10 October 2017
Orbit: 459 x 517 km, 97.2° (Epoch: 22 October)

Event Time Altitude Azimuth Distance (km) Brightness Sun altitude
Rises 19:22:41 0° 175° (S) 2,565 10.2 -9.6°
Reaches altitude 10° 19:24:47 10° 179° (S) 1,678 9.3 -9.9°
Maximum altitude 19:28:21 60° 259° (W) 562 7.2 -10.6°
Drops below altitude 10° 19:31:53 10° 341° (NNW) 1,660 9.5 -11.2°
Sets 19:33:57 0° 345° (NNW) 2,534 10.4 -11.6°
